RH
66 64 62 60 59 57 56 54 53 52 51 49 48 47 45 43 42 40 39 38 37 36 35 34 34 33 32 31 30 29 28 28 27 27 27 27 28 29 28 29 31 31 32 35 40 49 56 52 38 25 31 52 65 67 73 78 80 83 81 76 75 70 66 67 70 70 69 68 69 73 73 71 68 69 71 73 87 100 88 57 34 26 24 23 24
57 56 55 55 54 53 52 52 51 50 49 48 46 44 42 40 37 35 33 32 31 30 28 27 26 25 23 22 21 20 19 19 18 19 19 18 18 18 18 19 19 19 22 23 23 33 51 61 54 39 33 46 63 69 72 78 85 93 92 82 79 78 71 72 78 80 78 69 66 75 78 74 75 78 82 82 81 92 99 82 52 31 23 21 24
58 59 59 59 58 57 56 55 54 52 50 47 44 41 38 34 32 29 27 26 25 23 22 21 19 19 18 17 17 16 17 17 17 17 17 17 17 17 17 18 18 19 21 22 19 24 41 51 52 60 67 67 69 71 72 80 89 96 96 85 83 86 79 80 90 89 85 75 66 76 86 84 83 84 90 92 77 78 97 97 73 44 27 22 20
65 65 65 64 62 61 59 57 54 51 47 43 39 35 31 28 26 24 22 21 20 19 19 18 18 18 17 17 18 18 19 19 19 20 20 20 19 18 19 19 19 20 19 20 19 20 32 39 35 46 68 78 81 79 76 83 91 97 99 87 83 91 87 84 90 90 95 89 76 84 93 85 83 81 82 81 63 52 70 88 85 57 30 25 24
70 70 69 67 65 63 60 57 53 48 43 38 35 31 28 25 24 22 21 21 21 20 20 20 20 20 20 21 21 21 22 22 22 22 21 20 21 20 20 20 19 19 17 17 19 19 24 32 31 35 51 66 76 81 81 85 88 92 98 89 83 92 92 87 87 91 101 98 87 90 86 73 73 65 55 60 56 45 48 65 84 71 38 27 26
74 73 72 70 68 65 61 57 52 46 41 37 34 31 28 26 26 25 25 25 24 24 24 24 24 24 24 24 24 24 24 23 23 22 22 22 23 22 21 22 22 22 21 19 20 22 24 26 29 37 52 65 73 78 80 85 88 88 92 92 89 95 96 91 91 94 98 97 92 88 71 58 64 58 44 44 49 55 56 55 68 74 62 53 45
77 76 75 72 69 66 61 56 51 45 41 37 35 33 32 31 31 30 30 29 29 29 28 28 29 28 28 27 27 26 25 25 25 24 24 25 24 24 25 25 23 21 21 20 20 22 24 26 32 42 53 66 76 82 84 88 93 93 92 94 96 100 101 98 95 94 91 86 79 73 62 55 61 59 49 39 35 47 60 64 71 78 82 88 82
80 79 77 74 71 66 60 55 50 45 43 42 41 40 39 38 37 35 35 34 34 34 33 33 32 31 31 30 29 29 27 27 26 25 26 26 25 27 25 26 34 39 38 39 38 33 29 28 35 44 56 69 75 79 87 95 99 100 98 99 100 101 101 101 98 92 87 79 69 64 61 60 63 60 51 45 41 46 56 73 90 92 92 98 97
83 81 79 75 71 66 60 55 51 48 47 47 47 46 44 42 41 39 38 38 37 37 37 37 36 34 33 32 30 30 28 26 27 27 27 28 28 31 33 44 66 78 76 75 70 60 52 49 43 37 48 71 80 78 84 94 100 102 100 99 101 101 100 102 101 93 86 84 82 75 65 64 69 66 57 52 53 54 57 72 93 100 98 100 99
84 82 79 76 71 66 60 56 52 51 51 51 51 50 48 46 44 43 42 41 40 40 39 37 37 35 33 31 30 30 28 28 29 29 31 34 35 39 51 66 84 91 92 95 94 86 82 81 75 57 49 64 82 85 83 86 94 101 101 98 99 101 101 102 100 95 90 92 95 90 81 77 77 71 60 53 52 56 61 73 89 96 97 100 99
85 82 79 75 70 64 60 57 56 55 54 53 53 52 50 48 46 44 43 41 39 39 38 36 37 35 34 34 34 33 33 32 32 33 35 36 38 51 69 81 90 96 99 100 99 96 90 84 84 86 78 70 75 83 85 86 94 100 99 100 100 100 102 103 100 97 91 89 91 94 92 85 74 69 64 56 55 63 70 80 93 98 98 101 100
85 81 77 72 67 62 59 57 57 56 56 55 53 52 51 49 47 45 44 43 42 42 41 40 41 40 40 40 38 38 38 36 36 39 37 36 50 76 93 96 97 100 102 100 97 97 96 86 77 82 84 76 73 79 83 86 95 100 99 100 101 100 101 102 101 96 89 87 91 94 96 89 75 68 64 55 60 77 85 90 97 99 98 99 99
83 78 74 70 66 63 63 63 63 63 63 62 59 58 56 54 53 52 50 50 49 48 48 48 46 46 46 45 43 42 41 40 43 42 40 52 79 99 102 100 101 101 99 101 100 99 101 97 88 83 80 75 75 84 90 90 93 99 100 99 101 100 101 102 102 99 94 94 98 99 101 99 83 65 53 48 61 88 101 101 101 102 102 102 101
81 79 78 77 75 76 77 78 77 76 74 71 67 64 62 60 59 58 57 56 55 54 53 52 50 50 50 49 48 47 44 46 47 44 53 80 100 102 99 99 101 101 100 100 101 100 100 98 95 95 91 87 88 96 101 99 98 100 100 100 100 100 100 100 100 101 99 99 101 100 97 91 74 55 45 44 53 73 90 95 94 94 93 93 94
85 87 88 88 89 90 90 89 87 84 80 76 71 68 66 64 62 62 62 60 60 59 57 56 55 54 54 55 54 50 49 52 50 52 76 102 103 97 101 102 99 99 99 98 99 100 101 98 95 95 94 93 95 97 98 98 99 99 99 100 101 100 101 102 100 100 100 97 92 86 77 67 57 52 53 56 58 63 72 78 81 81 82 83 83
92 95 96 96 98 97 96 94 91 86 82 79 75 72 70 68 67 67 67 65 65 65 63 62 62 60 59 59 59 54 52 54 55 59 83 103 102 98 102 100 99 100 98 95 96 93 91 91 90 90 89 88 88 90 91 93 96 97 96 94 93 92 93 95 97 98 96 91 85 79 72 66 63 65 71 76 81 85 87 89 91 92 95 95 88
98 101 101 101 102 100 98 96 90 86 84 81 77 76 74 73 72 72 71 70 70 70 69 68 67 66 64 63 63 60 55 57 61 60 70 90 101 101 100 99 100 101 99 99 98 91 84 82 83 84 83 79 78 78 79 83 92 97 95 89 85 85 83 79 79 84 87 85 82 81 81 78 75 78 81 83 89 97 102 103 100 97 99 102 97
100 102 101 102 101 99 97 94 89 86 84 80 78 77 76 76 76 77 77 76 76 77 77 74 71 70 70 67 66 65 59 58 65 64 64 82 101 102 99 101 100 99 102 102 95 85 80 79 81 81 77 72 72 73 72 77 88 96 98 96 93 94 93 83 72 70 73 72 69 66 67 66 65 66 67 67 70 80 89 93 94 94 97 99 101
101 101 100 99 98 96 94 91 87 84 82 80 79 78 78 79 80 82 84 84 85 86 84 80 75 71 69 65 61 61 57 54 60 65 64 77 98 102 99 101 101 99 102 102 96 90 86 85 85 82 79 76 77 83 89 93 98 101 100 101 101 100 100 95 87 82 81 79 73 65 59 55 52 52 53 54 60 68 74 81 89 98 102 100 99
101 100 99 97 95 93 90 87 84 82 81 80 80 81 83 85 87 90 91 91 90 89 84 78 71 64 61 58 54 54 55 51 53 63 66 74 93 103 100 99 101 100 101 102 102 100 97 98 97 90 86 85 85 92 97 93 91 96 97 98 101 100 98 98 97 97 97 94 84 73 66 60 56 56 58 58 63 69 72 81 94 101 102 101 101
98 98 97 95 93 90 87 85 83 83 84 84 85 87 90 93 94 95 94 92 89 84 76 68 63 58 56 56 55 55 58 57 56 63 69 74 89 101 101 99 101 101 101 101 102 102 103 104 103 95 91 91 91 94 91 79 78 93 100 98 98 98 98 100 100 100 100 98 90 86 86 78 67 68 74 72 70 74 75 81 95 102 101 101 102
96 95 94 92 90 88 86 85 85 86 88 90 91 92 94 95 94 93 91 89 82 74 66 59 57 57 56 59 62 62 63 66 66 69 75 80 91 101 101 99 101 102 101 100 101 103 104 102 97 91 88 88 89 94 94 88 90 99 100 95 96 99 99 100 100 100 100 99 98 99 101 91 72 69 79 81 82 88 87 82 88 98 101 102 102
95 94 93 91 89 87 87 88 90 91 93 94 94 93 93 92 90 88 85 79 71 62 57 55 55 57 60 67 72 69 66 69 72 75 80 86 94 101 101 100 101 102 100 100 101 103 102 97 92 87 83 84 87 92 95 95 98 100 96 94 99 103 102 100 101 101 101 102 102 100 101 99 86 77 81 85 89 97 99 90 84 90 97 100 100
94 94 93 92 90 91 91 93 95 95 94 94 93 90 89 85 82 79 72 66 61 56 54 55 57 62 70 77 77 69 62 67 75 79 85 92 95 98 101 100 100 100 100 101 102 102 100 95 88 80 75 73 72 72 71 71 73 76 78 82 88 90 91 94 97 98 99 100 102 100 99 102 99 93 92 95 96 99 101 98 93 93 96 96 96
95 94 94 94 95 96 97 96 96 94 92 91 88 83 78 73 68 66 62 59 58 55 55 56 58 67 79 85 84 76 64 64 77 86 89 95 98 97 99 100 97 95 98 99 100 100 98 92 85 77 70 64 59 57 55 54 54 55 56 61 67 69 72 77 80 85 91 96 100 102 99 98 98 95 92 92 94 97 100 100 100 100 99 97 96
94 94 96 99 99 99 98 96 94 91 89 87 82 74 68 65 63 63 64 64 64 61 60 59 60 73 89 95 98 95 75 64 81 95 92 92 97 98 99 100 96 93 96 98 100 100 96 90 83 76 69 64 61 60 58 55 54 53 52 54 60 64 71 78 82 85 90 94 98 100 100 101 101 91 79 75 80 89 96 99 100 101 100 100 100
96 98 100 102 101 99 97 94 92 90 86 82 76 70 68 68 69 71 72 72 71 67 63 64 71 87 100 99 100 103 87 71 84 101 100 95 99 100 99 99 96 95 97 99 98 95 89 84 79 73 66 64 64 63 62 61 61 59 58 62 70 76 82 88 91 91 91 92 96 100 99 99 95 83 71 68 71 77 85 92 98 101 101 101 102
100 102 103 102 100 99 96 93 91 88 83 79 74 73 74 75 77 79 79 78 77 73 73 79 88 98 103 99 98 103 98 85 88 99 102 100 100 101 100 99 99 100 101 100 95 86 80 76 73 70 68 69 70 69 69 71 71 69 69 72 75 79 87 92 93 94 95 96 99 101 97 95 94 90 87 84 78 74 78 83 90 98 101 102 104
102 102 101 100 98 98 96 93 89 84 80 79 78 78 81 83 84 83 82 82 81 82 87 95 100 100 100 100 99 101 102 99 98 101 102 100 100 101 100 100 101 102 103 100 92 84 81 79 75 75 77 77 76 76 76 78 78 77 77 78 76 80 92 100 99 99 102 103 102 102 100 100 101 101 100 97 91 88 88 83 83 91 96 98 100
102 101 99 99 99 99 97 92 87 83 83 84 85 84 83 85 88 87 86 84 83 84 89 96 100 100 100 101 100 99 102 103 100 99 100 100 101 101 99 99 102 103 100 95 89 87 87 83 79 81 83 81 80 81 81 83 84 84 84 83 82 83 87 91 92 94 97 96 95 96 99 101 102 101 101 101 100 102 101 91 85 90 96 97 100
103 103 104 104 102 99 95 91 88 89 91 93 95 94 88 84 84 85 86 85 83 82 83 86 89 92 95 99 100 99 100 101 97 97 102 104 102 99 95 95 99 99 93 88 86 86 86 84 81 82 83 83 84 86 89 93 96 97 95 92 89 87 85 84 86 88 87 86 85 87 91 94 95 98 100 102 102 102 101 96 91 92 96 100 102
102 105 108 107 102 98 96 95 96 98 100 101 102 101 96 89 83 80 81 84 84 82 81 81 83 82 82 90 98 101 100 100 99 100 102 99 95 95 94 91 92 91 87 84 83 81 82 83 82 82 84 89 92 95 99 102 104 104 104 100 99 99 98 95 91 85 80 80 81 84 85 86 87 89 92 96 99 97 96 98 95 92 96 103 103
103 106 109 108 105 102 102 103 104 105 106 106 105 102 99 97 92 85 82 81 81 82 81 81 84 83 78 80 92 100 101 100 100 101 99 94 94 98 97 92 91 88 84 82 80 79 81 83 84 85 89 95 100 102 104 104 102 101 102 101 100 101 102 102 98 92 89 90 91 92 93 93 93 91 88 89 91 90 93 97 94 90 96 103 102
105 109 110 109 107 107 106 106 105 105 105 105 105 104 102 101 100 96 92 87 82 81 80 79 82 86 83 80 86 97 104 104 102 101 99 98 100 101 96 92 90 86 81 81 82 83 84 85 85 88 92 96 102 105 105 103 101 100 100 100 100 100 100 101 101 99 99 100 99 100 100 100 101 100 96 93 91 90 91 92 89 89 97 102 102
105 108 108 105 106 109 109 107 106 105 104 103 104 105 105 103 103 104 104 101 94 88 85 83 82 85 87 88 92 98 104 104 101 98 98 99 99 96 92 90 88 84 83 85 86 86 86 85 85 87 90 94 100 104 103 101 100 100 100 100 100 100 100 100 100 101 101 100 100 101 101 100 100 101 100 98 94 92 91 90 89 93 99 101 101
104 105 103 101 103 105 106 106 105 105 106 107 108 109 108 107 108 108 107 107 104 100 95 90 86 85 89 96 101 102 101 101 100 99 100 100 97 93 90 89 87 86 88 90 89 88 87 86 85 85 86 90 95 100 103 102 101 101 101 101 100 100 101 101 101 102 102 101 101 100 97 94 93 95 96 96 93 91 93 96 96 98 101 102 98
103 103 103 103 103 103 102 104 104 105 108 111 111 110 110 111 110 107 105 106 107 105 101 98 93 90 92 98 103 104 102 101 101 101 101 100 96 93 92 91 90 90 92 93 92 90 88 85 84 83 83 85 88 93 98 100 99 99 100 101 101 101 101 102 103 103 103 103 101 100 98 94 93 95 97 97 95 94 96 99 99 100 102 101 94
101 102 104 105 106 106 106 107 107 108 111 111 109 107 109 109 106 103 105 108 108 107 105 103 100 100 102 101 102 103 103 99 100 103 103 99 95 92 92 92 91 93 96 97 96 93 90 87 84 82 82 83 84 86 90 93 96 97 97 97 98 99 100 101 102 102 104 103 101 100 100 99 99 100 101 101 101 102 101 100 100 101 101 97 90
101 101 102 104 107 107 107 109 110 109 109 107 104 103 106 106 103 104 108 108 106 105 105 103 102 105 108 105 101 102 103 101 103 106 104 98 95 93 92 92 94 98 102 103 100 97 94 90 86 82 82 83 84 85 86 88 91 94 94 94 94 94 95 96 97 98 100 102 101 100 100 100 100 101 101 100 101 102 101 99 101 101 98 93 86
103 102 102 105 107 105 104 106 108 106 103 102 101 103 107 105 103 106 111 108 102 101 103 104 104 106 106 104 101 101 101 101 103 104 102 98 97 95 93 95 100 104 105 104 101 98 95 92 87 84 82 83 86 88 89 90 92 94 94 93 91 90 89 90 92 94 97 101 102 100 100 101 100 100 100 100 100 100 100 101 102 99 93 87 82
104 103 103 103 103 102 101 103 103 101 102 102 100 103 109 109 104 106 110 106 101 101 103 104 106 107 107 105 102 101 100 101 102 103 102 101 99 97 98 101 102 101 100 99 96 95 94 91 87 85 84 88 93 96 97 99 101 101 99 95 91 88 86 85 88 91 94 98 102 101 100 100 100 100 100 101 100 101 102 101 98 93 87 81 77
102 102 102 101 101 101 101 101 101 101 103 103 100 102 109 111 107 107 108 104 101 103 104 104 105 107 109 109 106 103 102 103 102 102 103 102 101 101 103 103 100 96 94 92 91 92 92 88 86 88 92 98 103 104 105 107 108 107 106 102 96 90 86 85 88 90 91 95 100 102 100 100 101 100 100 100 101 102 102 98 92 86 81 77 74
100 101 101 101 102 102 100 102 104 104 104 103 101 101 106 108 107 108 109 106 103 105 107 107 107 106 107 109 109 107 105 104 103 103 104 103 102 102 103 101 97 93 89 87 89 92 91 87 88 95 102 106 108 108 107 108 109 109 109 108 105 99 94 90 89 88 89 92 98 102 101 100 100 100 100 102 103 102 97 91 85 81 78 76 76
100 102 102 102 102 102 101 102 106 106 105 103 101 101 105 108 108 111 112 108 104 105 109 110 109 107 105 105 105 106 109 109 108 106 105 101 98 98 99 98 94 88 84 85 89 91 90 90 95 103 108 109 109 109 108 108 108 107 106 105 105 105 103 100 96 93 91 92 96 100 102 101 100 101 102 103 102 98 92 86 83 79 77 77 80
101 104 104 103 101 101 101 102 103 104 105 104 101 102 105 106 106 109 111 107 103 104 108 110 110 109 107 105 103 103 105 106 105 103 101 97 95 96 97 94 88 83 83 86 89 90 92 97 103 107 109 108 105 104 105 104 103 102 102 101 101 101 102 103 101 99 96 94 93 95 99 101 101 101 101 99 95 92 88 84 81 79 78 81 86
101 102 103 101 100 101 102 101 101 102 104 105 104 103 103 103 104 107 109 105 102 104 107 108 108 108 107 106 105 103 101 101 101 99 96 94 94 96 94 89 85 85 87 89 90 92 98 105 109 108 108 106 102 101 102 102 101 101 102 101 101 101 101 102 102 101 99 97 94 92 93 94 94 94 93 91 88 86 84 81 80 81 82 87 93
100 100 101 101 101 101 100 100 102 105 107 108 105 103 101 101 105 110 111 105 101 105 108 108 108 108 107 106 105 103 102 102 100 97 96 97 96 94 91 88 88 90 91 93 96 101 107 111 110 106 104 102 101 100 101 101 100 101 101 101 102 102 102 101 101 101 100 97 94 92 91 90 89 88 87 85 83 81 80 80 83 86 89 93 98
101 102 101 100 100 101 101 103 106 107 106 104 103 102 102 102 105 110 110 104 101 104 108 108 108 107 106 105 104 104 103 102 101 101 100 99 97 95 95 95 93 92 94 100 107 111 111 108 105 103 101 101 101 101 101 100 100 101 101 101 102 103 103 101 100 100 99 97 95 93 91 89 87 85 83 81 81 82 84 87 91 94 96 100 103
104 103 101 100 101 103 106 107 107 105 103 101 101 103 105 104 105 108 107 102 100 104 108 108 107 105 104 103 103 102 101 100 101 102 102 101 101 100 99 96 95 97 103 109 111 109 105 102 101 101 101 101 100 100 100 100 100 100 100 100 100 101 102 103 102 101 100 98 96 93 90 88 87 86 86 87 89 91 93 96 99 100 102 104 105
106 105 104 103 103 103 104 105 104 105 106 106 106 107 108 107 107 106 103 99 99 103 106 106 105 104 102 100 99 99 99 101 103 105 105 105 103 99 97 98 102 105 107 106 104 102 101 101 101 101 101 101 101 101 101 100 100 100 100 101 101 100 100 102 103 103 104 103 102 101 99 98 98 98 98 98 99 100 101 103 104 106 106 106 105
105 106 105 103 102 100 100 100 102 104 107 108 110 111 111 109 107 105 102 99 99 101 103 104 103 102 101 99 98 99 101 103 107 109 108 104 99 97 98 103 105 104 101 100 101 101 101 101 100 100 101 101 100 100 100 100 100 100 100 101 101 100 100 101 101 101 101 102 102 103 104 104 104 104 104 103 102 102 103 105 106 106 106 104 103
Wind_Speed
7 6 4 3 3 3 3 4 6 7 8 10 12 13 14 15 17 17 19 20 21 22 23 24 25 26 26 27 27 28 29 30 30 31 31 32 32 33 34 34 35 36 37 37 37 36 37 39 43 45 42 40 41 40 40 40 40 40 41 43 45 45 45 45 46 48 47 44 41 36 32 33 34 32 31 29 22 18 22 32 36 37 37 38 39
5 3 1 1 2 4 5 6 8 9 11 12 13 15 16 17 18 18 19 21 22 23 23 24 25 25 26 27 27 28 28 29 29 30 30 31 32 32 32 33 34 35 35 36 36 35 35 35 39 42 40 40 42 41 41 41 36 30 33 40 43 44 46 45 42 41 43 45 43 34 30 30 29 26 24 25 25 20 20 27 33 37 39 40 40
3 4 5 7 8 9 10 11 12 13 14 15 16 16 17 18 19 19 20 21 22 22 23 24 24 25 25 26 26 27 27 27 28 28 29 30 30 31 31 32 33 33 34 35 36 36 36 36 39 37 33 35 40 42 43 40 34 29 33 41 40 41 45 42 35 36 39 43 45 36 24 22 23 22 19 20 25 25 22 25 31 36 40 41 43
9 10 11 12 13 14 15 15 16 16 17 17 18 18 18 19 20 20 20 21 21 22 23 23 23 24 24 24 25 25 26 26 27 27 28 28 29 30 30 31 32 33 34 35 36 37 37 38 40 38 36 37 39 42 43 40 35 33 37 43 41 39 45 43 38 36 35 38 42 32 21 21 22 22 23 23 29 33 29 27 31 37 41 42 43
13 14 15 16 17 18 19 19 19 19 19 19 20 20 20 20 21 21 21 22 22 22 23 23 23 23 24 24 24 25 26 26 27 27 27 27 28 29 30 31 32 32 33 34 35 36 37 38 39 39 39 40 40 42 43 42 41 40 40 44 44 42 45 47 43 37 33 36 37 29 25 27 26 27 31 28 29 34 35 31 30 35 41 43 45
16 17 18 19 20 20 21 21 21 21 20 21 22 22 21 21 22 22 22 22 22 23 23 23 23 24 24 24 25 25 26 26 27 27 27 27 27 28 29 29 30 31 32 34 34 35 36 37 38 39 38 39 39 41 42 42 43 44 43 43 44 44 46 48 44 38 35 34 30 27 31 32 27 27 33 31 28 29 32 33 32 32 34 37 41
19 19 20 21 21 22 23 23 23 22 22 22 22 22 21 21 22 22 22 23 23 23 24 24 24 24 25 25 25 26 26 27 27 27 27 28 28 28 29 29 30 31 31 33 34 35 36 37 38 39 38 38 38 38 39 40 41 42 42 42 43 45 47 47 44 39 37 35 31 30 33 32 26 25 28 31 31 29 30 31 31 29 27 26 30
21 21 22 23 23 23 23 23 23 22 21 21 22 22 22 22 22 22 23 23 24 24 24 24 25 25 25 25 26 26 27 27 27 28 28 28 28 28 28 27 27 28 29 30 31 32 35 37 38 39 38 38 37 36 35 36 37 39 40 40 42 45 47 45 42 39 36 34 34 34 32 28 25 23 24 26 29 29 29 26 23 25 26 25 27
22 23 24 24 25 25 25 24 23 22 21 21 22 23 23 23 23 24 24 24 24 25 25 25 25 26 26 26 26 27 28 28 28 28 28 28 28 27 26 25 24 24 26 27 28 30 32 34 36 38 38 37 36 36 34 32 33 36 38 38 41 46 47 43 39 37 34 28 26 28 29 26 23 22 23 24 25 27 28 25 21 23 27 28 28
24 25 26 26 26 27 26 25 24 23 22 22 23 23 24 24 24 24 24 25 25 25 26 26 26 27 27 28 28 28 28 28 27 27 27 26 26 25 25 24 23 24 25 24 25 28 29 30 32 33 35 35 35 35 34 31 31 34 37 38 41 45 45 41 38 34 30 24 20 20 23 23 21 21 24 26 26 27 29 26 22 22 26 28 29
26 26 27 27 28 27 27 26 25 24 23 23 23 23 24 24 25 25 25 26 26 26 26 27 26 27 27 28 28 28 27 27 27 26 26 25 23 23 23 23 23 23 23 25 27 30 31 32 31 29 30 33 35 34 34 32 31 33 36 39 40 41 40 38 37 34 30 27 23 19 20 23 24 24 25 27 27 27 26 23 20 21 25 26 28
27 27 27 28 28 27 26 26 25 24 23 23 23 24 24 25 25 25 25 26 26 26 26 26 26 26 26 27 27 27 27 27 26 26 25 23 21 21 22 22 23 23 24 27 30 31 31 32 32 29 29 32 34 34 34 33 31 32 35 38 38 37 36 34 35 34 32 31 27 23 22 24 25 25 24 26 27 25 24 23 21 23 26 26 28
27 28 28 27 27 26 25 24 24 23 23 23 23 23 24 24 24 24 25 25 25 26 26 25 25 25 26 27 27 27 27 26 26 25 24 21 19 19 20 21 23 25 27 28 29 28 27 27 28 28 27 28 30 32 33 33 32 31 33 34 33 32 31 31 31 32 32 29 26 23 22 23 25 27 26 28 28 26 26 25 25 26 27 27 28
28 27 26 25 24 24 23 23 23 23 24 24 24 24 24 24 24 24 25 26 26 26 26 26 26 26 26 27 27 27 27 26 26 25 22 19 18 18 19 20 20 22 25 26 26 25 23 23 24 24 24 24 25 25 26 27 27 26 27 29 28 27 27 28 28 29 30 29 26 25 24 26 28 29 28 29 30 30 30 30 29 30 32 33 35
27 24 23 23 22 23 23 23 24 25 25 25 25 24 24 25 25 25 26 27 27 27 28 28 28 28 27 27 28 28 28 26 25 24 20 17 18 18 18 19 20 22 25 26 26 24 22 22 22 23 24 23 22 20 20 20 20 21 22 25 26 27 28 29 29 29 30 30 30 29 28 29 29 30 29 29 32 34 34 35 36 36 36 38 39
24 23 22 22 22 23 24 25 26 26 26 26 26 26 26 26 26 26 27 27 27 28 28 28 28 29 28 28 28 29 28 26 25 23 20 18 19 18 17 18 19 22 25 28 28 27 25 25 24 25 25 26 24 22 21 20 19 19 21 23 24 26 27 28 28 28 29 30 30 30 30 29 29 30 30 31 33 34 33 32 33 32 32 35 38
22 22 22 22 23 24 25 26 27 27 27 27 28 27 27 28 28 27 28 28 28 29 29 29 29 29 30 29 29 29 29 27 25 24 23 21 19 18 18 18 18 19 22 25 27 28 28 27 27 26 27 27 27 26 24 23 21 21 22 24 25 26 27 27 26 26 27 28 29 30 30 30 31 31 32 32 32 31 29 29 29 26 25 28 31
22 23 23 23 24 25 26 26 27 28 28 29 29 29 29 29 28 28 28 29 29 29 29 30 30 30 30 31 29 29 30 28 25 25 24 21 19 19 19 18 19 19 19 23 27 28 29 29 27 25 25 26 26 25 24 23 22 22 23 24 25 26 27 29 29 28 28 28 30 30 31 31 32 33 34 34 34 33 32 33 33 30 28 29 28
23 23 24 25 25 26 27 28 29 29 29 30 29 29 29 28 28 28 28 28 29 29 29 30 31 30 31 31 30 29 30 29 26 24 23 21 18 18 18 18 18 19 19 20 24 25 26 25 24 22 22 22 22 21 20 19 20 21 22 24 25 26 26 27 29 28 28 28 30 30 30 31 32 33 34 34 33 33 32 32 30 27 27 29 28
24 25 25 26 27 28 28 29 29 29 29 29 28 28 27 27 27 27 27 27 28 29 29 30 31 31 31 30 29 28 27 27 26 23 22 21 18 16 17 17 17 19 20 20 20 20 20 19 18 19 19 19 19 19 18 18 18 20 22 24 25 25 25 26 26 26 27 29 31 31 29 28 29 30 31 31 30 30 29 28 27 24 23 25 25
26 26 27 28 29 29 29 29 29 28 27 26 27 26 25 25 26 26 27 28 28 29 30 30 31 31 29 28 27 25 24 24 24 22 21 20 17 15 16 16 17 20 21 20 19 17 15 14 16 18 18 18 19 19 18 18 17 19 22 23 23 22 21 21 20 21 22 23 25 25 24 24 25 25 25 25 26 26 25 25 26 26 25 25 24
28 28 29 30 30 30 29 28 27 26 25 24 25 26 25 25 26 26 27 28 29 30 30 29 28 28 26 25 24 23 21 21 21 21 21 19 16 14 14 14 17 19 19 18 17 15 13 15 19 21 20 20 20 20 20 19 19 21 24 22 21 20 18 16 15 16 17 16 16 16 17 21 25 24 22 22 21 21 21 23 25 25 26 26 25
29 30 30 31 30 29 28 27 25 25 24 24 24 25 25 25 26 27 27 28 29 28 27 26 26 25 24 22 21 21 20 19 19 20 20 19 16 15 14 13 14 16 16 17 17 16 16 18 21 21 20 20 20 20 21 21 22 23 24 23 23 24 23 21 21 22 21 19 18 17 16 18 20 22 21 21 20 19 20 22 24 25 26 27 26
30 30 30 30 29 27 26 25 24 23 23 23 24 25 25 25 26 26 27 26 26 26 25 24 24 24 22 20 20 20 19 19 19 18 19 17 15 13 13 14 15 17 18 20 20 19 20 20 20 19 19 20 21 22 23 24 25 26 27 27 28 29 29 29 28 28 27 25 22 20 19 17 17 18 18 18 19 19 19 21 22 23 24 25 25
30 30 29 28 27 25 25 24 23 23 22 23 24 24 24 25 25 24 24 23 23 23 23 23 23 22 20 19 20 20 20 20 19 18 17 15 13 12 14 17 19 19 20 21 22 21 21 20 20 21 22 23 24 25 25 25 26 26 27 28 29 30 31 31 31 30 29 26 23 21 21 19 18 20 22 21 20 19 17 17 18 18 19 20 21
29 28 27 26 25 24 24 24 23 23 23 23 24 24 23 23 23 22 22 22 22 22 22 22 21 20 17 16 17 19 20 21 19 16 15 13 12 12 15 17 19 19 19 21 22 22 22 22 22 24 25 27 28 28 28 27 27 27 26 26 26 27 27 27 27 26 26 24 22 22 21 19 19 23 28 27 25 22 20 18 17 16 16 15 15
28 26 25 24 24 24 24 24 24 24 25 24 23 22 21 21 22 21 21 21 21 21 21 20 18 16 15 15 16 17 20 22 18 13 11 10 9 10 14 17 18 19 19 20 21 23 24 24 25 27 29 31 31 30 29 28 28 27 26 25 25 25 24 23 23 23 24 23 22 21 21 21 22 26 29 28 26 25 24 22 20 19 17 16 15
25 24 23 23 24 24 25 25 25 26 25 24 23 21 20 20 21 21 21 20 20 19 18 17 16 15 15 16 17 16 17 18 15 9 6 7 7 8 10 12 14 16 17 18 21 24 25 26 28 30 32 32 31 30 28 25 24 25 25 25 26 26 24 23 22 22 22 20 19 20 22 22 22 23 23 24 25 25 25 25 23 21 20 20 19
23 23 23 23 24 25 26 27 27 26 26 24 23 21 20 20 22 22 21 19 18 17 15 15 15 16 16 16 17 17 15 12 9 6 6 7 8 8 8 10 12 13 14 18 23 25 27 28 30 30 31 31 29 27 25 22 21 21 22 22 24 24 22 22 22 22 20 19 19 21 22 21 21 21 21 22 23 22 23 26 25 23 22 22 21
23 23 24 25 26 27 28 28 28 27 26 25 24 23 21 21 21 22 21 19 17 16 15 15 14 15 16 16 16 17 15 12 10 10 9 9 10 11 14 15 15 14 17 21 25 26 27 29 29 29 28 28 26 23 21 20 19 19 19 19 19 20 21 23 23 22 22 22 22 23 23 23 23 23 21 21 21 19 20 24 25 24 23 22 21
24 25 26 27 28 29 29 28 27 26 25 25 25 25 25 23 21 21 21 20 18 17 17 17 16 16 16 15 13 13 15 16 16 15 14 13 14 18 20 19 18 19 22 25 26 26 26 28 28 26 25 23 21 18 17 16 16 16 16 16 16 17 18 20 21 22 23 23 23 24 24 25 25 25 23 22 22 21 21 22 23 24 23 21 19
24 26 28 29 29 29 28 27 26 26 25 25 25 25 26 25 24 22 21 21 20 19 17 18 18 18 19 18 14 11 12 13 13 14 17 18 19 22 23 22 22 24 25 25 25 25 25 25 24 22 20 18 16 15 15 14 14 14 14 14 14 13 13 14 16 19 21 21 21 22 23 24 25 26 26 25 25 25 23 21 22 23 22 19 18
26 28 29 30 29 28 27 26 26 25 25 25 25 24 25 25 26 25 24 23 23 21 19 18 17 18 19 19 18 15 13 11 10 13 18 19 19 21 22 22 22 24 24 24 23 23 21 20 19 18 17 16 15 14 14 13 13 13 12 12 12 11 11 11 11 13 14 16 17 19 20 21 22 23 24 24 25 25 23 21 22 22 21 19 18
28 28 29 28 27 27 26 25 25 25 24 24 24 24 24 24 24 25 25 25 25 24 22 19 16 15 17 17 18 19 18 16 16 18 18 16 16 19 21 21 22 23 22 21 20 18 17 17 17 16 16 16 15 14 14 14 12 12 11 11 11 10 9 8 8 9 10 12 14 16 18 20 20 21 22 22 22 22 21 20 21 20 19 17 16
28 28 27 26 25 24 24 24 24 24 24 24 24 24 24 23 23 23 23 24 25 25 25 22 17 13 13 14 15 16 17 18 18 16 13 13 16 19 20 20 21 20 18 17 16 15 15 16 16 16 17 16 15 15 15 15 14 13 12 11 10 10 9 8 8 9 10 12 14 17 19 21 21 21 21 20 20 20 20 19 18 17 16 15 13
27 27 26 24 23 23 23 23 23 24 24 24 24 23 22 22 21 21 21 21 22 22 23 22 19 14 11 12 13 14 14 14 13 11 10 14 18 19 19 19 19 18 16 15 14 13 14 14 15 16 17 17 17 17 16 16 16 15 14 13 12 10 10 9 9 10 11 13 15 18 20 21 21 20 20 20 19 18 18 17 15 14 13 12 10
26 25 24 23 23 23 23 23 24 24 24 23 22 21 20 19 19 18 18 19 19 19 19 19 18 14 10 10 11 12 12 12 12 11 13 16 18 17 17 17 17 16 15 14 13 13 13 13 14 16 16 17 17 17 17 17 18 17 16 15 14 12 11 11 11 12 12 13 15 18 19 19 18 17 18 18 17 16 15 13 12 11 11 10 9
25 24 23 23 23 22 23 23 23 23 22 21 19 18 18 17 16 16 16 16 16 17 16 16 15 13 11 9 9 11 13 12 11 12 14 15 15 15 16 16 15 14 13 12 12 13 13 13 14 15 16 17 17 17 17 18 18 18 18 17 16 14 13 13 12 13 13 13 14 15 14 12 11 12 13 14 14 12 11 11 11 10 9 8 8
24 23 23 22 22 22 21 21 21 20 19 18 18 17 16 15 15 14 15 15 15 15 15 14 12 11 10 9 9 10 11 10 9 10 12 13 14 15 15 15 14 13 12 12 13 13 13 14 14 15 16 16 17 17 17 17 17 18 18 18 17 16 15 14 14 14 13 12 12 11 9 5 2 5 6 8 9 9 9 10 10 9 8 8 9
24 23 21 21 20 20 19 19 19 18 17 17 16 15 15 14 13 13 13 13 14 13 13 13 11 10 9 8 8 8 8 8 8 10 13 14 14 15 14 14 13 12 12 12 13 14 14 14 15 15 15 16 15 15 15 15 15 16 16 17 18 17 16 15 15 15 13 11 9 9 7 5 4 5 5 7 8 9 9 9 8 7 7 8 10
21 21 19 19 18 18 18 18 17 17 17 16 15 14 14 13 12 12 12 12 13 13 13 12 11 10 9 9 9 9 9 10 11 13 14 14 14 14 13 12 12 12 13 13 14 15 15 15 15 15 15 14 13 13 12 12 13 13 14 15 16 16 16 15 15 15 13 11 8 6 4 3 4 5 5 6 7 7 7 6 6 6 7 9 11
19 19 18 18 18 18 18 18 17 16 16 15 14 13 13 12 11 11 11 12 12 13 13 12 11 10 10 10 11 11 12 12 13 13 14 14 14 13 12 12 13 13 14 14 15 16 16 15 15 14 13 11 11 11 11 11 11 12 12 13 13 14 15 14 14 14 13 11 8 6 3 1 1 2 3 3 4 4 4 4 5 6 8 10 12
18 18 18 18 18 18 17 17 16 15 14 14 13 13 12 12 11 11 11 11 12 13 13 12 12 11 10 10 10 11 11 12 12 12 12 12 12 12 12 13 13 13 14 14 15 16 16 16 14 12 10 9 10 10 10 10 11 11 11 11 11 11 12 12 13 14 13 11 9 7 5 3 1 1 1 2 2 3 4 5 7 8 10 12 13
17 17 17 17 17 17 16 15 15 14 13 13 13 12 12 12 11 10 10 11 12 12 12 12 12 11 10 10 9 9 9 9 10 10 10 11 12 13 13 14 14 14 14 13 14 15 15 14 12 9 8 9 10 10 10 10 10 9 9 8 8 8 8 9 10 11 12 11 10 8 6 5 4 4 3 3 4 5 6 7 9 10 12 13 14
16 16 16 17 17 17 15 14 13 13 13 12 12 11 11 11 10 9 9 10 11 12 11 11 11 11 10 10 10 9 9 9 9 9 10 11 12 13 14 14 14 13 13 12 12 13 13 11 10 8 8 8 9 10 10 9 9 8 8 7 6 6 6 7 9 10 10 11 11 10 9 8 7 6 6 6 7 8 8 10 11 12 13 14 14
16 16 16 17 17 17 15 14 13 12 12 12 12 11 11 10 9 8 9 10 11 11 11 11 11 10 10 10 10 10 9 9 9 10 11 12 13 14 14 14 13 12 11 12 12 11 10 9 9 8 8 7 7 8 8 8 8 8 8 7 7 6 6 7 8 8 10 11 11 11 11 10 10 10 10 9 10 10 11 12 13 14 15 14 14
16 16 16 16 17 16 14 13 12 11 11 11 11 11 10 9 8 8 9 10 10 11 11 11 11 10 10 9 9 9 9 9 9 10 10 11 12 12 12 11 11 10 10 10 10 9 8 8 8 8 7 6 6 6 7 7 8 8 8 8 7 7 6 7 8 8 9 11 11 12 12 12 12 12 12 12 13 13 14 14 15 15 15 14 13
16 16 16 16 15 14 13 12 11 11 11 11 11 11 10 9 8 8 8 9 10 10 11 11 10 10 9 9 8 9 9 9 9 10 10 10 11 11 10 10 10 9 8 8 8 8 8 8 7 7 6 6 6 6 6 7 7 7 7 7 7 6 6 6 7 8 9 10 11 12 13 13 13 14 14 15 15 15 15 15 15 15 14 13 13
16 16 15 15 14 13 12 12 12 12 12 12 12 11 10 9 8 8 8 9 10 10 11 11 10 9 9 8 8 8 9 9 9 9 9 9 9 9 9 9 9 8 8 7 7 7 7 7 6 6 6 6 6 6 6 6 6 6 6 6 6 5 5 5 6 7 8 9 10 11 12 13 14 14 15 15 15 15 15 15 14 14 14 14 13
15 15 14 14 13 13 12 13 13 13 12 12 11 11 10 9 8 8 9 9 9 9 10 10 10 9 9 8 8 8 8 8 8 8 8 8 8 8 8 8 8 8 8 7 7 6 6 6 6 7 7 7 7 7 7 7 6 6 6 5 6 6 5 5 6 7 8 9 10 10 11 12 13 13 14 14 14 14 14 14 14 14 14 14 13
14 14 13 13 13 13 13 14 14 13 13 12 12 11 10 10 9 9 9 9 9 9 9 9 10 9 9 9 9 8 8 8 8 8 8 8 8 8 8 8 7 7 7 7 7 7 7 7 7 7 7 8 8 8 8 8 8 8 7 7 7 7 6 6 6 7 7 8 9 9 10 10 11 12 12 12 12 12 12 13 13 13 13 13 12
Wind_Direction
133 138 145 159 183 213 237 251 264 269 272 275 276 277 277 276 275 275 274 273 273 273 273 273 273 273 273 273 272 272 272 272 273 272 272 272 271 271 272 271 271 271 272 272 272 272 274 274 275 274 273 273 272 271 270 270 270 269 270 270 268 266 263 259 258 263 266 265 265 267 268 272 277 277 274 273 270 267 275 281 285 288 290 292 293
120 121 122 286 280 282 285 287 288 289 288 288 287 287 286 284 283 282 280 279 279 278 277 277 277 277 277 277 276 276 276 276 276 275 274 274 273 273 273 272 272 272 272 272 272 272 272 272 274 276 276 275 273 272 271 271 268 262 263 268 268 266 264 259 257 258 260 263 264 266 270 272 274 274 272 273 274 273 273 277 283 288 290 292 293
18 351 338 330 323 319 317 314 311 309 306 303 300 297 294 292 289 287 285 283 282 282 281 280 280 279 279 279 278 278 277 277 276 276 276 275 275 275 274 273 273 272 272 272 272 273 272 272 273 274 275 276 275 274 273 272 267 260 262 268 267 265 263 258 253 253 256 260 263 265 268 269 269 270 269 272 277 278 275 275 281 287 290 292 293
349 343 340 336 333 331 329 327 324 321 317 312 308 305 301 298 296 293 290 288 287 286 285 285 284 284 283 282 281 280 280 279 278 277 277 277 276 275 274 274 273 272 272 272 272 272 272 272 273 272 273 275 275 275 274 272 269 263 263 268 268 263 261 257 251 251 254 258 262 263 264 265 266 270 274 277 281 282 282 279 281 287 291 292 293
343 341 340 338 336 335 333 331 329 326 321 315 311 308 306 302 299 296 293 291 291 289 288 288 287 286 286 284 284 283 282 281 280 279 279 278 277 276 275 274 274 273 273 273 273 273 273 273 273 273 274 275 274 274 273 272 270 267 265 269 270 263 259 257 253 249 250 255 260 262 264 267 268 273 278 282 285 286 287 284 282 287 293 293 293
339 338 338 337 336 334 332 330 328 325 320 314 310 308 305 302 298 297 295 294 294 292 291 291 290 289 288 287 286 285 284 284 283 283 283 281 280 279 278 277 276 276 275 274 274 273 273 273 273 273 274 275 275 274 272 271 270 270 269 270 270 263 259 256 251 247 248 252 257 261 264 268 271 275 278 282 286 286 288 289 287 287 291 292 292
336 336 335 334 333 332 330 328 326 323 318 312 309 306 303 301 299 299 298 297 297 296 294 294 293 292 291 290 289 289 288 288 288 287 287 286 285 283 282 282 280 279 277 276 275 274 273 273 272 273 273 274 275 274 272 271 269 270 270 270 267 262 258 254 250 249 251 252 256 260 264 268 270 273 278 281 284 286 287 290 289 286 285 283 286
334 334 334 333 332 331 329 327 324 322 317 312 309 307 305 304 303 302 302 300 299 298 297 296 295 294 294 293 292 291 291 290 290 289 288 287 287 286 285 285 284 283 281 279 278 276 275 273 271 271 270 271 273 274 272 271 270 270 269 268 266 260 254 250 249 250 250 252 256 259 262 265 266 270 276 279 283 286 289 289 285 284 285 283 282
334 334 334 333 332 330 328 326 323 320 316 311 309 308 307 306 305 304 303 302 300 300 299 298 297 296 295 293 292 291 291 290 289 289 289 288 289 289 288 287 285 284 282 282 282 280 278 278 276 272 269 269 271 273 272 271 271 270 269 268 265 258 251 248 248 249 249 250 253 255 258 261 262 265 271 275 280 285 289 288 281 281 286 286 283
330 330 330 329 327 326 324 322 319 317 313 310 309 308 308 307 306 305 304 302 301 300 298 297 297 295 294 293 291 291 290 289 289 289 289 290 291 290 289 286 284 282 281 281 282 281 281 281 281 279 274 270 269 270 270 270 272 273 272 270 264 254 249 248 247 246 246 245 245 249 253 255 257 263 270 276 282 286 289 287 281 283 286 283 282
327 327 327 325 324 323 320 318 316 314 312 310 308 308 307 306 304 303 302 300 298 297 296 295 295 294 293 293 292 292 291 290 290 289 289 290 291 290 289 286 283 281 279 279 279 281 282 281 281 281 278 273 270 269 268 269 274 275 269 262 256 252 250 249 247 245 244 244 245 246 250 254 260 266 271 279 285 286 286 283 278 281 282 279 280
324 323 322 319 318 317 314 312 311 310 308 307 306 305 304 302 301 300 299 298 298 297 297 296 296 296 295 294 294 294 293 292 292 292 291 292 294 294 291 286 282 278 277 278 279 279 282 283 282 281 278 274 272 269 268 268 272 275 268 258 253 252 251 248 246 245 245 246 248 248 250 257 265 270 276 284 286 284 282 278 274 276 277 275 275
317 316 314 313 313 313 312 311 310 310 310 309 308 307 306 305 304 304 303 302 301 301 301 301 300 299 298 296 295 294 293 294 294 293 294 296 299 298 292 284 281 278 275 274 274 276 280 283 285 284 282 279 276 272 271 269 269 271 268 260 255 253 251 249 248 249 250 250 250 250 251 257 267 274 280 286 285 282 279 273 270 273 272 270 272
314 314 314 315 315 315 315 314 314 314 314 313 312 312 311 309 308 307 306 305 304 304 303 302 301 300 299 298 297 295 294 295 295 294 296 298 298 298 294 287 281 275 270 269 272 276 278 279 280 282 282 281 279 276 274 270 266 263 258 252 247 246 246 245 245 246 248 249 249 250 255 261 269 276 282 285 283 280 276 272 272 275 274 273 276
316 317 316 316 316 315 316 315 315 315 315 315 314 313 312 310 308 308 307 305 305 305 304 303 302 300 299 298 297 295 294 295 294 294 296 296 296 298 294 287 281 275 271 272 274 276 277 277 277 278 278 277 277 278 277 274 268 261 255 251 249 248 247 246 245 245 247 249 252 257 263 267 272 277 280 282 284 283 280 278 279 281 280 277 278
317 315 314 315 314 312 313 313 313 314 314 314 313 313 311 309 308 308 307 305 305 304 303 303 302 301 300 300 298 296 294 294 294 292 290 289 293 296 290 283 280 276 274 276 276 277 277 277 277 277 277 277 276 276 277 279 278 273 268 265 263 261 258 254 253 253 255 258 262 265 268 271 273 276 278 280 284 286 284 281 281 282 280 276 274
313 311 310 311 310 310 311 312 312 313 313 312 312 311 310 308 307 307 305 304 304 304 304 304 304 304 303 302 302 300 296 296 295 291 287 286 289 291 287 282 278 275 276 278 280 281 281 280 281 281 281 280 278 277 276 277 278 277 275 274 274 272 271 266 261 259 259 261 264 265 267 270 270 272 274 275 276 278 277 276 274 274 275 273 273
308 307 308 309 309 309 311 311 311 311 310 309 309 308 306 306 305 305 304 304 305 305 306 306 305 306 305 303 304 302 298 297 297 293 288 287 287 287 284 280 276 273 275 280 283 283 283 284 286 286 285 285 283 280 278 276 276 276 274 274 273 271 271 273 271 269 268 266 267 266 264 265 266 266 267 268 266 267 269 272 273 271 271 271 272
307 308 309 309 309 310 311 310 309 309 307 307 306 304 304 303 303 303 303 303 305 305 306 306 305 305 304 303 303 302 299 297 295 291 287 286 285 283 280 279 278 274 274 282 286 287 287 288 289 288 286 284 282 281 280 276 273 272 271 271 271 267 269 274 276 276 277 276 275 274 269 266 266 264 263 263 263 264 267 271 273 269 265 267 268
309 310 310 310 310 310 309 308 307 306 306 305 303 302 302 301 301 301 301 302 303 303 303 304 304 304 304 304 304 303 302 299 295 289 284 283 282 281 278 278 277 274 276 283 286 286 288 289 289 287 284 282 280 279 280 277 271 270 270 271 273 274 273 274 272 270 272 275 276 277 276 273 271 270 267 266 266 267 267 268 270 266 260 260 262
310 310 310 310 309 309 308 308 307 306 305 304 303 301 301 300 300 300 301 302 302 302 303 304 304 304 305 306 306 306 305 302 296 288 280 278 278 279 277 277 278 278 279 281 282 283 286 286 285 285 283 280 279 279 282 283 282 281 279 275 274 277 276 272 267 262 264 270 272 274 276 277 278 277 275 273 271 271 270 268 267 265 261 260 260
308 309 309 308 308 309 309 308 308 307 305 304 301 300 300 300 300 300 301 301 301 302 303 304 303 303 305 308 308 309 310 305 296 286 277 274 273 274 276 279 279 275 272 274 276 278 282 286 287 288 287 284 283 284 286 287 285 283 281 276 272 274 276 274 269 264 265 270 274 276 276 277 277 274 270 271 272 272 272 270 268 266 263 262 262
307 307 308 308 309 309 308 308 307 306 305 303 301 301 301 301 300 301 301 301 302 303 304 304 305 305 308 311 310 311 313 308 297 285 276 272 269 269 274 277 272 268 268 272 277 281 285 289 290 291 294 293 291 290 285 281 278 276 274 270 269 270 272 274 274 273 274 276 278 280 280 277 275 271 269 269 270 270 272 272 271 268 266 265 265
306 307 307 308 309 308 308 307 307 306 306 304 303 303 303 302 301 301 302 303 304 305 305 306 307 308 309 310 310 313 318 316 304 288 277 273 270 265 266 264 261 265 272 278 282 285 287 289 290 291 296 298 296 292 286 281 278 276 273 272 271 271 273 276 277 277 279 279 278 278 277 274 274 273 270 269 270 271 275 276 274 272 270 268 267
307 309 309 309 310 309 308 308 307 307 307 306 306 305 305 304 303 303 304 305 304 305 306 306 307 308 308 310 312 317 323 324 314 295 280 274 269 261 258 258 261 268 274 278 282 285 285 285 286 289 294 300 301 298 294 289 283 279 275 273 272 272 273 275 276 277 278 279 277 275 273 272 273 272 270 271 275 278 279 279 277 275 271 268 266
309 310 310 310 310 309 308 309 309 309 309 309 308 308 307 305 304 304 305 306 305 305 306 306 306 307 306 308 313 318 325 330 322 301 284 278 272 266 265 266 270 273 276 278 281 283 283 283 285 290 298 303 305 303 299 294 289 282 277 273 272 273 273 274 275 276 275 274 273 272 271 271 271 270 270 272 277 278 277 277 278 276 270 265 262
309 310 310 309 310 310 310 311 311 312 312 311 309 308 306 304 304 304 305 306 305 305 305 306 306 306 304 306 309 314 324 330 323 302 288 285 282 279 280 279 279 279 280 283 284 283 283 285 290 297 303 304 304 303 300 296 292 287 280 274 271 271 271 272 272 272 272 272 271 270 269 269 269 270 270 271 272 272 273 275 276 276 274 273 273
308 309 310 309 310 311 311 312 313 313 312 311 309 307 305 303 302 302 304 306 306 305 306 305 304 303 302 303 306 311 318 324 321 310 300 297 293 296 295 290 289 290 290 290 289 288 291 296 299 302 304 303 303 302 300 296 292 288 282 275 271 269 269 270 270 270 271 272 271 270 270 269 269 270 269 267 266 266 267 269 270 272 274 277 279
308 310 311 311 311 312 313 313 314 313 312 310 308 306 305 303 302 301 302 304 303 301 300 301 302 301 298 297 300 302 303 309 312 307 305 306 302 301 296 293 298 301 294 289 291 295 299 302 303 302 302 303 303 303 302 299 295 290 286 281 275 271 269 268 268 268 269 269 269 269 269 268 267 267 267 266 265 265 265 264 265 268 271 274 276
311 311 312 312 312 313 313 313 313 312 311 309 307 305 304 302 302 301 300 299 297 291 288 290 293 296 297 294 292 290 290 289 284 280 288 303 298 286 284 289 294 293 286 287 293 298 300 300 300 301 302 303 305 305 303 302 300 296 293 288 282 276 270 266 266 267 268 268 269 268 267 267 267 266 267 268 266 266 266 265 264 265 268 270 272
310 311 311 312 312 312 312 311 310 309 308 308 308 308 305 302 300 300 300 299 295 288 283 282 280 280 280 276 274 282 287 281 275 273 276 284 287 285 286 290 290 287 287 292 296 298 298 298 300 301 302 304 305 306 305 305 305 304 300 296 292 284 277 272 268 266 265 266 268 269 268 268 268 267 267 267 267 267 268 268 266 265 265 266 266
309 309 310 310 311 311 311 309 308 307 307 308 309 309 308 307 304 301 301 300 298 293 288 284 281 277 270 259 254 269 286 285 281 275 268 273 284 289 288 288 288 288 291 295 297 297 297 299 300 301 303 304 304 305 307 309 310 311 310 308 305 299 291 281 271 266 265 266 268 270 270 270 270 269 267 266 267 267 267 268 268 266 264 265 265
308 309 310 311 311 311 310 308 306 307 308 309 309 310 310 310 308 305 303 301 299 298 296 291 286 281 273 261 250 251 264 277 281 274 272 278 286 286 285 289 292 293 296 298 298 299 299 299 300 302 302 302 300 300 303 307 309 311 313 313 311 308 302 293 282 274 270 270 271 273 273 273 272 271 269 267 267 266 266 266 266 264 263 264 266
309 310 310 311 311 309 308 306 306 306 307 308 310 310 309 309 309 309 307 305 303 302 302 300 295 285 277 268 255 250 255 262 268 274 282 287 282 278 285 294 297 298 300 302 301 301 299 298 299 299 297 296 293 291 293 296 299 304 306 307 308 307 304 302 297 288 282 281 281 280 278 276 275 273 272 270 267 265 265 265 263 261 261 263 261
310 310 310 311 310 308 307 306 306 307 308 309 310 311 310 309 309 309 308 308 307 307 306 307 306 295 280 270 262 257 258 262 269 279 287 282 275 281 293 301 301 303 307 306 304 302 299 298 298 295 293 292 289 285 286 287 289 293 296 299 302 303 302 301 300 295 292 292 292 287 282 279 276 274 272 270 265 263 263 263 261 258 258 255 248
311 312 313 313 311 308 307 306 306 307 309 310 311 310 310 309 307 307 307 307 308 309 308 309 310 304 285 268 265 267 268 269 274 280 278 274 281 292 301 303 305 309 310 307 305 302 299 298 297 295 293 291 288 284 282 281 281 283 286 290 294 297 299 301 300 298 298 301 301 297 290 283 277 272 270 267 263 260 261 262 258 251 244 239 238
314 315 316 314 312 310 308 307 307 308 309 311 311 310 309 309 307 306 307 307 308 309 309 309 312 311 294 270 264 269 271 270 271 275 277 281 289 298 302 303 307 308 308 308 307 304 302 302 299 297 295 293 289 286 282 278 276 277 279 282 285 288 291 295 297 298 301 306 311 310 301 288 275 266 261 259 259 259 258 253 245 235 228 230 243
316 316 316 314 312 311 309 308 310 311 311 312 313 312 312 311 309 309 310 310 310 310 309 311 316 317 308 289 277 275 276 277 279 282 285 289 294 298 302 306 308 308 309 310 308 306 308 307 304 303 303 299 294 290 285 280 276 274 275 276 278 280 284 288 292 295 299 307 318 323 316 297 273 258 251 249 251 252 244 229 218 216 223 237 256
317 316 315 314 312 312 312 312 314 314 314 315 315 316 314 313 313 313 313 313 312 311 311 312 315 316 312 304 294 292 293 295 294 292 293 298 302 305 308 310 311 310 311 310 309 310 311 310 310 311 309 304 299 295 290 286 281 277 275 274 274 275 278 281 285 289 293 302 319 334 342 339 274 233 226 222 220 216 208 204 207 216 232 252 271
319 318 317 316 315 315 316 317 317 317 317 316 316 317 317 316 315 315 315 315 315 313 313 313 312 309 307 303 301 306 311 308 300 298 300 305 309 310 312 312 312 311 311 311 312 312 312 313 316 315 311 306 302 296 292 290 287 283 279 275 273 273 273 275 279 283 287 297 315 334 357 40 88 121 145 166 179 183 188 199 211 225 246 267 283
321 321 321 321 321 320 320 320 319 318 317 317 317 318 317 315 314 313 314 316 315 313 313 313 309 304 300 296 293 296 298 297 296 298 302 306 308 310 311 312 312 312 313 314 313 313 313 315 317 316 312 307 302 297 295 293 291 289 285 280 275 272 270 271 274 277 279 287 302 319 346 45 93 115 133 157 174 183 193 210 228 247 265 280 291
326 327 327 327 327 325 323 323 322 321 320 320 319 317 314 312 310 310 312 315 316 314 313 312 309 305 300 293 288 287 288 290 292 295 299 303 305 307 309 310 311 313 313 313 313 312 313 317 319 316 312 306 300 297 296 293 291 290 289 285 280 275 270 269 270 271 272 276 284 296 313 351 101 133 151 172 185 195 210 232 251 267 280 291 300
331 332 333 332 330 328 327 326 325 325 325 324 320 317 314 310 306 306 310 315 317 316 315 313 310 308 305 300 296 292 290 290 291 293 296 299 302 305 307 307 309 310 311 311 311 310 312 316 319 317 312 306 301 298 297 295 294 293 292 290 286 279 272 269 267 266 266 267 271 277 283 284 272 231 215 220 227 238 251 262 272 281 291 300 306
335 335 336 336 335 333 331 329 329 328 328 326 324 320 316 310 307 307 313 318 319 319 318 316 313 311 310 309 307 302 298 296 295 295 295 296 299 302 304 305 307 308 308 307 308 309 312 316 318 316 311 306 301 299 301 303 303 303 301 297 291 282 274 269 266 264 262 261 262 266 271 273 270 265 263 264 268 272 275 280 285 292 299 305 307
336 337 337 340 341 340 337 336 334 333 332 331 330 327 321 316 313 313 319 323 324 324 322 320 316 314 313 313 312 310 306 302 298 296 296 297 299 301 304 307 308 309 308 308 309 312 315 316 316 315 311 305 301 302 306 309 310 312 310 306 298 286 275 268 264 261 259 257 257 259 263 266 268 269 271 272 275 280 284 289 293 298 301 303 303
336 337 338 341 342 343 343 342 341 340 339 339 337 334 330 325 320 320 326 329 330 330 329 325 320 318 317 316 316 315 312 308 303 298 296 297 299 303 307 310 310 311 312 314 315 316 318 318 317 317 316 312 310 310 311 312 312 310 308 306 301 290 277 269 265 259 256 255 255 256 259 263 267 269 272 275 278 282 287 291 293 295 297 297 297
341 341 342 343 344 345 346 347 346 347 346 345 343 340 338 333 326 325 330 333 333 333 332 330 326 324 322 319 318 318 318 315 310 306 304 306 309 312 314 315 316 318 320 320 319 320 321 321 322 325 327 328 326 321 315 312 311 308 306 305 301 293 281 272 265 260 256 254 253 255 257 260 264 268 272 276 279 282 285 287 288 289 290 291 292
350 349 348 348 349 350 351 352 353 352 351 349 347 344 341 337 331 328 330 333 333 333 335 336 335 331 327 324 322 321 321 320 319 319 319 320 320 321 322 323 324 328 330 328 325 325 327 330 334 338 338 337 334 328 321 317 314 312 311 310 306 298 287 275 267 262 259 256 255 256 258 261 264 267 270 272 274 276 278 280 282 284 285 286 285
356 355 356 357 358 358 359 358 356 354 352 350 348 346 343 339 335 331 330 332 334 336 338 340 340 336 333 330 327 324 324 325 327 328 328 327 327 329 331 333 334 337 340 341 338 338 341 344 344 344 344 343 339 334 329 324 319 315 314 315 313 303 288 271 261 258 257 254 253 253 254 255 257 260 262 264 267 270 272 274 276 279 281 283 283
1 2 4 5 5 5 3 0 358 357 356 354 352 351 348 344 340 336 334 334 337 340 341 341 341 340 337 336 334 334 335 336 337 339 340 340 341 342 343 344 346 347 348 351 355 357 355 352 348 345 344 341 336 330 325 319 313 308 306 306 304 294 280 266 255 251 249 248 248 249 250 251 253 255 257 260 263 266 269 273 276 278 281 283 283
3 6 8 9 8 6 4 3 3 2 1 0 360 360 359 357 353 349 345 343 344 345 344 344 345 345 343 342 343 345 346 347 349 351 351 351 353 356 357 360 3 2 1 2 4 1 356 352 349 344 338 330 323 318 315 312 308 304 302 301 295 288 282 276 268 260 256 255 255 254 253 254 255 257 259 263 266 269 271 275 277 280 281 281 278